Bar Harbor Weather Center

Moon Phase Calendar



Online Cameras

 


      

Current Conditions in Bar Harbor
6/17/2021 1:23:45 AM

53°F
Feels Like 51
Clear
Humidity
60%
Pressure
29.8"
Wind
8.3 mph (W)
Dew Point
40°F
UV Index
0/10 (Low)
Visibility
6 mi

Hourly Forecast

Date & Time Thu, Jun 17
1:00 AM
Thu, Jun 17
2:00 AM
Thu, Jun 17
3:00 AM
Thu, Jun 17
4:00 AM
Thu, Jun 17
5:00 AM
Thu, Jun 17
6:00 AM
Thu, Jun 17
7:00 AM
Thu, Jun 17
8:00 AM
Thu, Jun 17
9:00 AM
Thu, Jun 17
10:00 AM
Thu, Jun 17
11:00 AM
Thu, Jun 17
12:00 PM
Thu, Jun 17
1:00 PM
Thu, Jun 17
2:00 PM
Thu, Jun 17
3:00 PM
Thu, Jun 17
4:00 PM
Thu, Jun 17
5:00 PM
Thu, Jun 17
6:00 PM
Thu, Jun 17
7:00 PM
Thu, Jun 17
8:00 PM
Thu, Jun 17
9:00 PM
Thu, Jun 17
10:00 PM
Thu, Jun 17
11:00 PM
Fri, Jun 18
12:00 AM
Fri, Jun 18
1:00 AM
Fri, Jun 18
2:00 AM
Fri, Jun 18
3:00 AM
Fri, Jun 18
4:00 AM
Fri, Jun 18
5:00 AM
Fri, Jun 18
6:00 AM
Fri, Jun 18
7:00 AM
Fri, Jun 18
8:00 AM
Fri, Jun 18
9:00 AM
Fri, Jun 18
10:00 AM
Fri, Jun 18
11:00 AM
Fri, Jun 18
12:00 PM
Fri, Jun 18
1:00 PM
Fri, Jun 18
2:00 PM
Fri, Jun 18
3:00 PM
Fri, Jun 18
4:00 PM
Fri, Jun 18
5:00 PM
Fri, Jun 18
6:00 PM
Fri, Jun 18
7:00 PM
Fri, Jun 18
8:00 PM
Fri, Jun 18
9:00 PM
Fri, Jun 18
10:00 PM
Fri, Jun 18
11:00 PM
Sat, Jun 19
12:00 AM
Condition
Clear

Clear

Clear

Clear

Clear

Clear

Clear

Clear

Clear

Clear

Clear

Clear

Clear

Clear

Clouds

Clouds

Clouds

Clouds

Clouds

Clouds

Clouds

Clouds

Clouds

Clouds

Clouds

Clear

Clear

Clear

Clear

Clear

Clear

Clear

Clear

Clear

Clear

Clear

Clear

Clear

Clear

Clear

Clear

Clear

Clouds

Clouds

Clouds

Clouds

Clouds

Clouds
Temperature 53°F53°F53°F52°F52°F53°F54°F56°F58°F58°F59°F59°F60°F59°F60°F59°F59°F59°F58°F57°F57°F56°F55°F54°F53°F53°F53°F53°F53°F54°F56°F58°F59°F60°F61°F61°F61°F61°F61°F61°F60°F59°F58°F57°F56°F56°F56°F55°F
Feels Like 51°F51°F51°F51°F50°F51°F53°F54°F56°F57°F57°F58°F58°F58°F58°F58°F58°F58°F57°F56°F56°F55°F54°F53°F52°F52°F52°F52°F52°F53°F55°F57°F58°F59°F59°F60°F60°F60°F60°F60°F59°F58°F58°F56°F55°F55°F55°F55°F
Cloudiness 3%3%3%2%2%3%4%5%0%0%0%1%3%6%25%25%21%18%22%27%34%20%14%12%11%10%4%3%2%2%1%1%9%7%7%9%10%9%7%6%6%6%11%12%12%16%31%47%
Visibility 6 mi6 mi6 mi6 mi6 mi6 mi6 mi6 mi6 mi6 mi6 mi6 mi6 mi6 mi6 mi6 mi6 mi6 mi6 mi6 mi6 mi6 mi6 mi6 mi6 mi6 mi6 mi6 mi6 mi6 mi6 mi6 mi6 mi6 mi6 mi6 mi6 mi6 mi6 mi6 mi6 mi6 mi6 mi6 mi6 mi6 mi6 mi6 mi
Precipitation 0%0%0%0%0%0%0%0%0%0%0%0%0%0%0%0%0%0%0%0%0%0%0%0%0%0%0%0%0%0%0%0%0%0%0%0%0%0%0%0%0%0%0%0%0%0%0%0%
Humidity 60%64%68%73%77%78%74%69%66%64%65%64%65%67%67%70%70%71%73%73%72%73%80%84%87%87%84%82%80%79%75%72%68%65%65%64%63%65%68%72%75%77%80%83%87%89%89%90%
Dew Point 40°F41°F42°F44°F45°F46°F46°F46°F46°F45°F46°F46°F46°F47°F47°F48°F49°F49°F49°F49°F48°F48°F48°F49°F49°F49°F48°F48°F47°F48°F48°F48°F48°F47°F47°F47°F47°F48°F49°F50°F51°F52°F52°F52°F52°F52°F52°F52°F
Pressure 29.8"29.8"29.8"29.8"29.83"29.83"29.83"29.85"29.85"29.85"29.85"29.85"29.85"29.85"29.85"29.85"29.85"29.88"29.88"29.91"29.91"29.94"29.94"29.94"29.94"29.94"29.94"29.97"29.97"29.97"29.97"29.97"29.97"29.97"29.97"29.97"29.94"29.94"29.91"29.91"29.91"29.91"29.91"29.91"29.91"29.91"29.88"29.85"
Wind Speed 8.3 mph9.1 mph9.1 mph9.2 mph10.3 mph12 mph11.8 mph11 mph11 mph11.9 mph12.4 mph14 mph14.8 mph15.4 mph14.9 mph15 mph15.4 mph14.5 mph13.8 mph13.8 mph12.6 mph11.8 mph9.4 mph7.7 mph5.3 mph4.6 mph4.9 mph3.5 mph4 mph4 mph4.7 mph4.2 mph4.9 mph7 mph9.3 mph10.1 mph10.7 mph10.4 mph10.8 mph11.9 mph12 mph11.3 mph9.8 mph10.1 mph10.7 mph11.3 mph11.2 mph11.1 mph
Wind
Direction
261°
W
268°
W
261°
W
252°
WSW
248°
WSW
255°
WSW
265°
W
260°
W
252°
WSW
244°
WSW
234°
SW
220°
SW
217°
SW
214°
SW
214°
SW
208°
SSW
210°
SSW
211°
SSW
219°
SW
229°
SW
241°
WSW
256°
WSW
260°
W
252°
WSW
250°
WSW
273°
W
296°
WNW
307°
NW
303°
WNW
296°
WNW
281°
W
247°
WSW
228°
SW
197°
SSW
191°
S
213°
SSW
215°
SW
209°
SSW
206°
SSW
200°
SSW
199°
SSW
199°
SSW
203°
SSW
193°
SSW
192°
SSW
200°
SSW
203°
SSW
199°
SSW

Daily Forecast

Date High Low Precip. Humidity
Today
Jun 17

Clear
60 °F
52 °F
0%
64%
Friday
Jun 18

Clear
61 °F
53 °F
0%
64%
Saturday
Jun 19

Rain
59 °F
55 °F
100%
88%
Sunday
Jun 20

Rain
65 °F
54 °F
100%
81%
Monday
Jun 21

Clouds
64 °F
57 °F
0%
79%
Tuesday
Jun 22

Rain
59 °F
57 °F
30%
98%
Wednesday
Jun 23

Rain
62 °F
53 °F
97%
59%
Thursday
Jun 24

Clouds
61 °F
54 °F
0%
72%
Friday
Jun 25

Rain
60 °F
57 °F
80%
95%
Saturday
Jun 26

Rain
59 °F
56 °F
92%
95%
Sunday
Jun 27

Rain
59 °F
57 °F
100%
100%
Monday
Jun 28

Clear
68 °F
58 °F
26%
71%
Tuesday
Jun 29

Clouds
64 °F
58 °F
0%
77%
Wednesday
Jun 30

Rain
65 °F
58 °F
72%
86%
Thursday
Jul 1

Rain
66 °F
59 °F
80%
90%
Friday
Jul 2

Rain
68 °F
59 °F
78%
81%

Temperature 8-14 Day Outlook



Precipitation 8-14 Day Outlook




Quick Links
Bar Harbor News
Bar Harbor Photos
Bar Harbor Videos




About Us
Contact Us
Site Map
Search Site
Advertise With Us
   
BarHarbor.USCoast.info
THE BAR HARBOR WEBSITE

Copyright 2021, Coastal Town
Privacy    |    Legal